User: anonymous
Location: Dover
(39.1580°N, 75.5250°W)
Time: 01:32:10
(UTC-04:00)
Language:

Cosmos 1437 Rocket - Orbit

View from above orbital plane
View from above orbital plane
View from above satellite
View from above satellite

Ground track
Ground track

The orbit data is extracted from the following two-line orbital elements,

1 13771U 83003B   14107.88345867  .00006083  00000-0  41252-3 0    79
2 13771 081.1575 253.4078 0030858 227.7704 132.0900 15.05908505699478
Epoch (UTC): 17 April 2014 21:12:10
Eccentricity: 0.0030858
inclination: 81.1575°
perigee height: 527 km
apogee height: 570 km
right ascension of ascending node: 253.4078°
argument of perigee: 227.7704°
revolutions per day: 15.05908505
mean anomaly at epoch: 132.0900°
orbit number at epoch: 69947

The dashed part of the orbit path shows where the satellite is in the earth's shadow,  

DLR